User: anonymous   Login
Location: Moonridge Observatory
(39.2268°N, 77.7914°W)
Time: 19:42:50
(UTC-04:00)
Language:

CZ-2C R/B - Orbit

View from above orbital plane
View from above orbital plane
View from above satellite
View from above satellite

Ground track
Ground track

The orbit data is extracted from the following two-line orbital elements,

1 28480U 04046B   17112.87563021 +.00000013 +00000-0 +20453-4 0  9992
2 28480 098.1927 212.6357 0142550 028.2781 077.9799 14.25633653646351
Epoch (UTC): 22 April 2017 21:00:54
Eccentricity: 0.0142550
inclination: 98.1927°
perigee height: 704 km
apogee height: 909 km
right ascension of ascending node: 212.6357°
argument of perigee: 28.2781°
revolutions per day: 14.25633653
mean anomaly at epoch: 77.9799°
orbit number at epoch: 64635

The dashed part of the orbit path shows where the satellite is in the earth's shadow,  

DLR